| time (UTC) | temp F | wind direction | speed MPH | gust MPH | rain 1hr in | rain 24hr in | rain mn in | humidity % | barometer mb |
| 20260831175210 | 85 | 62 | 9.0 | 14.0 | 0.00 | 0.00 | 0.00 | 78 | 1017.3 |
| 20260831174716 | 85 | 60 | 12.0 | 14.0 | 0.00 | 0.00 | 0.00 | 77 | 1017.3 |
| 20260831174221 | 86 | 47 | 5.0 | 8.0 | 0.00 | 0.00 | 0.00 | 80 | 1017.3 |
| 20260831173745 | 86 | 30 | 1.0 | 1.0 | 0.00 | 0.00 | 0.00 | 81 | 1017.3 |
| 20260831173229 | 85 | 68 | 0.0 | 2.0 | 0.00 | 0.00 | 0.00 | 81 | 1017.3 |
| 20260831172717 | 84 | 74 | 1.0 | 4.0 | 0.00 | 0.00 | 0.00 | 83 | 1017.4 |
| 20260831172222 | 84 | 75 | 2.0 | 5.0 | 0.00 | 0.00 | 0.00 | 85 | 1017.6 |
| 20260831171727 | 83 | 42 | 3.0 | 8.0 | 0.00 | 0.00 | 0.00 | 85 | 1017.7 |
| 20260831171213 | 83 | 51 | 5.0 | 11.0 | 0.00 | 0.00 | 0.00 | 85 | 1017.7 |
| 20260831170718 | 83 | 37 | 8.0 | 12.0 | 0.00 | 0.00 | 0.00 | 84 | 1017.8 |
| 20260831170223 | 83 | 44 | 10.0 | 12.0 | 0.00 | 0.00 | 0.00 | 83 | 1017.9 |
| 20260831165727 | 84 | 43 | 10.0 | 12.0 | 0.00 | 0.00 | 0.00 | 82 | 1017.9 |
| 20260831165232 | 84 | 51 | 9.0 | 14.0 | 0.00 | 0.00 | 0.00 | 83 | 1018.0 |
| 20260831164716 | 85 | 49 | 10.0 | 15.0 | 0.00 | 0.00 | 0.00 | 81 | 1018.1 |
| 20260831164221 | 87 | 55 | 11.0 | 15.0 | 0.00 | 0.00 | 0.00 | 79 | 1018.1 |
| 20260831163724 | 88 | 49 | 2.0 | 4.0 | 0.00 | 0.00 | 0.00 | 75 | 1018.0 |
| 20260831163211 | 87 | 332 | 1.0 | 3.0 | 0.00 | 0.00 | 0.00 | 75 | 1018.0 |
| 20260831162716 | 87 | 317 | 1.0 | 3.0 | 0.00 | 0.00 | 0.00 | 75 | 1018.1 |
| 20260831162221 | 87 | 347 | 1.0 | 3.0 | 0.00 | 0.00 | 0.00 | 77 | 1018.2 |
| 20260831161745 | 87 | 314 | 1.0 | 3.0 | 0.00 | 0.00 | 0.00 | 76 | 1018.2 |
| 20260831161250 | 87 | 310 | 1.0 | 2.0 | 0.00 | 0.00 | 0.00 | 75 | 1018.2 |
| 20260831160746 | 86 | 325 | 1.0 | 3.0 | 0.00 | 0.00 | 0.00 | 74 | 1018.3 |
| 20260831160216 | 86 | 325 | 1.0 | 3.0 | 0.00 | 0.00 | 0.00 | 75 | 1018.4 |
| 20260831155719 | 86 | 329 | 0.0 | 2.0 | 0.00 | 0.00 | 0.00 | 74 | 1018.4 |
| 20260831155244 | 86 | 330 | 1.0 | 2.0 | 0.00 | 0.00 | 0.00 | 78 | 1018.6 |
| 20260831154711 | 86 | 328 | 2.0 | 2.0 | 0.00 | 0.00 | 0.00 | 79 | 1018.6 |
| 20260831154216 | 85 | 307 | 2.0 | 2.0 | 0.00 | 0.00 | 0.00 | 76 | 1018.7 |
| 20260831153740 | 85 | 319 | 1.0 | 2.0 | 0.00 | 0.00 | 0.00 | 78 | 1018.7 |
| 20260831153224 | 85 | 326 | 1.0 | 3.0 | 0.00 | 0.00 | 0.00 | 80 | 1018.7 |
| 20260831152748 | 85 | 308 | 1.0 | 3.0 | 0.00 | 0.00 | 0.00 | 80 | 1018.6 |
| 20260831152211 | 84 | 338 | 1.0 | 4.0 | 0.00 | 0.00 | 0.00 | 83 | 1018.5 |
| 20260831151716 | 84 | 336 | 3.0 | 4.0 | 0.00 | 0.00 | 0.00 | 84 | 1018.6 |
| 20260831151220 | 85 | 332 | 3.0 | 5.0 | 0.00 | 0.00 | 0.00 | 84 | 1018.5 |
| 20260831150744 | 84 | 359 | 2.0 | 5.0 | 0.00 | 0.00 | 0.00 | 84 | 1018.5 |
| 20260831150245 | 84 | 340 | 3.0 | 5.0 | 0.00 | 0.00 | 0.00 | 85 | 1018.5 |
| 20260831145746 | 84 | 340 | 1.0 | 3.0 | 0.00 | 0.00 | 0.00 | 85 | 1018.5 |
| 20260831145210 | 84 | 333 | 2.0 | 5.0 | 0.00 | 0.00 | 0.00 | 85 | 1018.5 |
| 20260831144714 | 84 | 9 | 2.0 | 6.0 | 0.00 | 0.00 | 0.00 | 86 | 1018.4 |
| 20260831144217 | 84 | 321 | 3.0 | 5.0 | 0.00 | 0.00 | 0.00 | 86 | 1018.4 |
| 20260831143720 | 84 | 4 | 2.0 | 4.0 | 0.00 | 0.00 | 0.00 | 87 | 1018.3 |
| 20260831143228 | 83 | 2 | 2.0 | 4.0 | 0.00 | 0.00 | 0.00 | 86 | 1018.2 |
| 20260831142731 | 83 | 355 | 3.0 | 4.0 | 0.00 | 0.00 | 0.00 | 87 | 1018.3 |
| 20260831142235 | 83 | 331 | 3.0 | 4.0 | 0.00 | 0.00 | 0.00 | 87 | 1018.3 |
| 20260831141737 | 83 | 5 | 1.0 | 4.0 | 0.00 | 0.00 | 0.00 | 88 | 1018.3 |
| 20260831141221 | 83 | 19 | 2.0 | 4.0 | 0.00 | 0.00 | 0.00 | 88 | 1018.3 |
| 20260831140719 | 83 | 354 | 3.0 | 4.0 | 0.00 | 0.00 | 0.00 | 88 | 1018.2 |
| 20260831140224 | 82 | 355 | 2.0 | 4.0 | 0.00 | 0.00 | 0.00 | 89 | 1018.1 |
| 20260831135728 | 82 | 15 | 2.0 | 4.0 | 0.00 | 0.00 | 0.00 | 89 | 1018.1 |
| 20260831135233 | 82 | 8 | 2.0 | 4.0 | 0.00 | 0.00 | 0.00 | 90 | 1018.0 |
| 20260831134715 | 82 | 11 | 3.0 | 4.0 | 0.00 | 0.00 | 0.00 | 90 | 1017.9 |
| 20260831134219 | 82 | 16 | 3.0 | 4.0 | 0.00 | 0.00 | 0.00 | 90 | 1018.0 |
| 20260831133724 | 82 | 4 | 2.0 | 4.0 | 0.00 | 0.00 | 0.00 | 90 | 1018.0 |
| 20260831133248 | 82 | 357 | 2.0 | 3.0 | 0.00 | 0.00 | 0.00 | 90 | 1017.9 |
| 20260831132711 | 82 | 2 | 2.0 | 3.0 | 0.00 | 0.00 | 0.00 | 90 | 1017.9 |
| 20260831132216 | 82 | 2 | 2.0 | 3.0 | 0.00 | 0.00 | 0.00 | 91 | 1017.8 |
| 20260831131725 | 81 | 2 | 1.0 | 2.0 | 0.00 | 0.00 | 0.00 | 91 | 1017.8 |
| 20260831131228 | 81 | 2 | 1.0 | 4.0 | 0.00 | 0.00 | 0.00 | 92 | 1017.7 |
| 20260831130731 | 81 | 21 | 3.0 | 4.0 | 0.00 | 0.00 | 0.00 | 92 | 1017.7 |
| 20260831130235 | 81 | 11 | 2.0 | 4.0 | 0.00 | 0.00 | 0.00 | 92 | 1017.7 |
| 20260831125718 | 81 | 4 | 2.0 | 3.0 | 0.00 | 0.00 | 0.00 | 92 | 1017.7 |
| 20260831125242 | 81 | 15 | 1.0 | 3.0 | 0.00 | 0.00 | 0.00 | 92 | 1017.6 |
| 20260831124725 | 80 | 2 | 2.0 | 3.0 | 0.00 | 0.00 | 0.00 | 92 | 1017.6 |
| 20260831124230 | 80 | 319 | 1.0 | 3.0 | 0.00 | 0.00 | 0.00 | 92 | 1017.5 |
| 20260831123714 | 80 | 329 | 1.0 | 2.0 | 0.00 | 0.00 | 0.00 | 92 | 1017.5 |
| 20260831123217 | 80 | 16 | 1.0 | 2.0 | 0.00 | 0.00 | 0.00 | 93 | 1017.5 |
| 20260831122722 | 80 | 17 | 1.0 | 3.0 | 0.00 | 0.00 | 0.00 | 93 | 1017.4 |
| 20260831122225 | 79 | 38 | 2.0 | 3.0 | 0.00 | 0.00 | 0.00 | 93 | 1017.4 |
| 20260831121749 | 79 | 53 | 1.0 | 3.0 | 0.00 | 0.00 | 0.00 | 93 | 1017.5 |
| 20260831121250 | 79 | 47 | 3.0 | 3.0 | 0.00 | 0.00 | 0.00 | 94 | 1017.4 |
| 20260831120743 | 79 | 32 | 2.0 | 4.0 | 0.00 | 0.00 | 0.00 | 94 | 1017.4 |
| 20260831120226 | 79 | 42 | 3.0 | 4.0 | 0.00 | 0.00 | 0.00 | 94 | 1017.4 |
| 20260831115711 | 79 | 44 | 3.0 | 4.0 | 0.00 | 0.00 | 0.00 | 94 | 1017.3 |
| 20260831115215 | 78 | 47 | 3.0 | 4.0 | 0.00 | 0.00 | 0.00 | 94 | 1017.2 |
| 20260831114223 | 78 | 56 | 3.0 | 4.0 | 0.00 | 0.00 | 0.00 | 95 | 1017.1 |
| 20260831113728 | 78 | 61 | 3.0 | 4.0 | 0.00 | 0.00 | 0.00 | 95 | 1017.1 |
| 20260831113212 | 76 | 121 | 0.0 | 3.0 | 0.00 | 0.00 | 0.00 | 94 | 1017.0 |
| 20260831112717 | 77 | 111 | 0.0 | 4.0 | 0.00 | 0.00 | 0.00 | 95 | 1017.0 |
| 20260831112240 | 77 | 49 | 3.0 | 4.0 | 0.00 | 0.00 | 0.00 | 96 | 1016.8 |
| 20260831111724 | 77 | 55 | 2.0 | 3.0 | 0.00 | 0.00 | 0.00 | 95 | 1016.8 |
| 20260831111228 | 76 | 141 | 0.0 | 0.0 | 0.00 | 0.00 | 0.00 | 95 | 1016.7 |
| 20260831110713 | 76 | 141 | 0.0 | 0.0 | 0.00 | 0.00 | 0.00 | 95 | 1016.6 |
| 20260831110217 | 76 | 143 | 0.0 | 0.0 | 0.00 | 0.00 | 0.00 | 95 | 1016.6 |
| 20260831105723 | 76 | 143 | 0.0 | 0.0 | 0.00 | 0.00 | 0.00 | 95 | 1016.5 |
| 20260831105227 | 76 | 143 | 0.0 | 0.0 | 0.00 | 0.00 | 0.00 | 95 | 1016.5 |
| 20260831104713 | 76 | 143 | 0.0 | 0.0 | 0.00 | 0.00 | 0.00 | 95 | 1016.5 |
| 20260831104236 | 76 | 142 | 0.0 | 0.0 | 0.00 | 0.00 | 0.00 | 95 | 1016.5 |
| 20260831103718 | 76 | 143 | 0.0 | 0.0 | 0.00 | 0.00 | 0.00 | 95 | 1016.5 |
| 20260831103223 | 77 | 141 | 0.0 | 0.0 | 0.00 | 0.00 | 0.00 | 95 | 1016.4 |
| 20260831102726 | 76 | 144 | 0.0 | 0.0 | 0.00 | 0.00 | 0.00 | 95 | 1016.4 |
| 20260831102250 | 77 | 118 | 0.0 | 0.0 | 0.00 | 0.00 | 0.00 | 95 | 1016.4 |
| 20260831101714 | 76 | 144 | 0.0 | 0.0 | 0.00 | 0.00 | 0.00 | 95 | 1016.3 |
| 20260831101217 | 76 | 145 | 0.0 | 0.0 | 0.00 | 0.00 | 0.00 | 95 | 1016.2 |
| 20260831100712 | 77 | 145 | 0.0 | 0.0 | 0.00 | 0.00 | 0.00 | 95 | 1016.2 |
| 20260831100218 | 77 | 145 | 0.0 | 0.0 | 0.00 | 0.00 | 0.00 | 96 | 1016.2 |
| 20260831095723 | 76 | 145 | 0.0 | 0.0 | 0.00 | 0.00 | 0.00 | 96 | 1016.2 |
| 20260831094719 | 77 | 144 | 0.0 | 0.0 | 0.00 | 0.00 | 0.00 | 96 | 1016.4 |
| 20260831094244 | 76 | 143 | 0.0 | 0.0 | 0.00 | 0.00 | 0.00 | 95 | 1016.4 |
| 20260831093728 | 76 | 144 | 0.0 | 0.0 | 0.00 | 0.00 | 0.00 | 95 | 1016.3 |
| 20260831093213 | 76 | 144 | 0.0 | 0.0 | 0.00 | 0.00 | 0.00 | 95 | 1016.4 |
| 20260831092718 | 76 | 144 | 0.0 | 0.0 | 0.00 | 0.00 | 0.00 | 95 | 1016.4 |
| 20260831092223 | 76 | 144 | 0.0 | 0.0 | 0.00 | 0.00 | 0.00 | 95 | 1016.4 |
| 20260831091727 | 76 | 144 | 0.0 | 0.0 | 0.00 | 0.00 | 0.00 | 95 | 1016.4 |
| 20260831091216 | 76 | 144 | 0.0 | 0.0 | 0.00 | 0.00 | 0.00 | 96 | 1016.3 |
| 20260831090720 | 76 | 144 | 0.0 | 0.0 | 0.00 | 0.00 | 0.00 | 96 | 1016.2 |
| 20260831090226 | 76 | 144 | 0.0 | 0.0 | 0.00 | 0.00 | 0.00 | 95 | 1016.1 |
| 20260831085711 | 75 | 144 | 0.0 | 0.0 | 0.00 | 0.00 | 0.00 | 95 | 1016.1 |
| 20260831085216 | 75 | 144 | 0.0 | 0.0 | 0.00 | 0.00 | 0.00 | 95 | 1016.1 |
| 20260831084721 | 75 | 144 | 0.0 | 0.0 | 0.00 | 0.00 | 0.00 | 95 | 1016.1 |
| 20260831084226 | 75 | 144 | 0.0 | 0.0 | 0.00 | 0.00 | 0.00 | 95 | 1016.1 |
| 20260831083711 | 75 | 144 | 0.0 | 0.0 | 0.00 | 0.00 | 0.00 | 95 | 1016.2 |
| 20260831083216 | 75 | 144 | 0.0 | 0.0 | 0.00 | 0.00 | 0.00 | 95 | 1016.2 |
| 20260831082720 | 75 | 144 | 0.0 | 0.0 | 0.00 | 0.00 | 0.00 | 95 | 1016.2 |
| 20260831082245 | 76 | 144 | 0.0 | 0.0 | 0.00 | 0.00 | 0.00 | 95 | 1016.3 |
| 20260831081713 | 76 | 144 | 0.0 | 0.0 | 0.00 | 0.00 | 0.00 | 95 | 1016.3 |
| 20260831081218 | 76 | 144 | 0.0 | 0.0 | 0.00 | 0.00 | 0.00 | 95 | 1016.5 |
| 20260831080714 | 76 | 144 | 0.0 | 0.0 | 0.00 | 0.00 | 0.00 | 95 | 1016.5 |
| 20260831080239 | 76 | 144 | 0.0 | 0.0 | 0.00 | 0.00 | 0.00 | 95 | 1016.5 |
| 20260831075723 | 76 | 144 | 0.0 | 0.0 | 0.00 | 0.00 | 0.00 | 95 | 1016.5 |
| 20260831075228 | 75 | 144 | 0.0 | 0.0 | 0.00 | 0.00 | 0.00 | 95 | 1016.4 |
| 20260831074713 | 75 | 144 | 0.0 | 0.0 | 0.00 | 0.00 | 0.00 | 95 | 1016.4 |
| 20260831074236 | 75 | 144 | 0.0 | 0.0 | 0.00 | 0.00 | 0.00 | 95 | 1016.4 |
| 20260831073722 | 76 | 144 | 0.0 | 0.0 | 0.00 | 0.00 | 0.00 | 95 | 1016.4 |
| 20260831073228 | 75 | 144 | 0.0 | 0.0 | 0.00 | 0.00 | 0.00 | 95 | 1016.4 |
| 20260831072715 | 76 | 144 | 0.0 | 0.0 | 0.00 | 0.00 | 0.00 | 94 | 1016.5 |
| 20260831072222 | 76 | 144 | 0.0 | 0.0 | 0.00 | 0.00 | 0.00 | 95 | 1016.6 |
| 20260831071711 | 76 | 144 | 0.0 | 0.0 | 0.00 | 0.00 | 0.00 | 95 | 1016.7 |
| 20260831071216 | 76 | 144 | 0.0 | 0.0 | 0.00 | 0.00 | 0.00 | 95 | 1016.7 |
| 20260831070721 | 76 | 144 | 0.0 | 0.0 | 0.00 | 0.00 | 0.00 | 95 | 1016.8 |
| 20260831070246 | 76 | 144 | 0.0 | 0.0 | 0.00 | 0.00 | 0.00 | 95 | 1016.8 |
| 20260831065730 | 76 | 144 | 0.0 | 1.0 | 0.00 | 0.00 | 0.00 | 95 | 1016.9 |
| 20260831065215 | 76 | 144 | 0.0 | 1.0 | 0.00 | 0.00 | 0.00 | 94 | 1016.9 |
| 20260831064720 | 76 | 144 | 1.0 | 1.0 | 0.00 | 0.00 | 0.00 | 95 | 1016.8 |
| 20260831064225 | 76 | 144 | 1.0 | 1.0 | 0.00 | 0.00 | 0.00 | 95 | 1016.8 |
| 20260831063730 | 76 | 144 | 0.0 | 1.0 | 0.00 | 0.00 | 0.00 | 95 | 1016.9 |
| 20260831063235 | 76 | 144 | 1.0 | 2.0 | 0.00 | 0.00 | 0.00 | 94 | 1016.9 |
| 20260831062719 | 76 | 144 | 1.0 | 2.0 | 0.00 | 0.00 | 0.00 | 94 | 1017.0 |
| 20260831062224 | 76 | 144 | 0.0 | 0.0 | 0.00 | 0.00 | 0.00 | 94 | 1017.1 |
| 20260831061720 | 76 | 144 | 0.0 | 0.0 | 0.00 | 0.00 | 0.00 | 94 | 1017.0 |
| 20260831061229 | 76 | 144 | 0.0 | 0.0 | 0.00 | 0.00 | 0.00 | 94 | 1017.0 |
| 20260831060746 | 76 | 144 | 0.0 | 0.0 | 0.00 | 0.00 | 0.00 | 94 | 1017.0 |
| 20260831060250 | 76 | 144 | 0.0 | 0.0 | 0.00 | 0.00 | 0.00 | 94 | 1017.1 |
| 20260831055713 | 76 | 144 | 0.0 | 0.0 | 0.00 | 0.00 | 0.00 | 94 | 1017.1 |
| 20260831055218 | 76 | 141 | 0.0 | 0.0 | 0.00 | 0.00 | 0.00 | 94 | 1017.1 |
| 20260831054723 | 77 | 141 | 0.0 | 0.0 | 0.00 | 0.00 | 0.00 | 93 | 1017.1 |
| 20260831054228 | 77 | 141 | 0.0 | 0.0 | 0.00 | 0.00 | 0.00 | 93 | 1017.1 |
| 20260831053711 | 77 | 141 | 0.0 | 0.0 | 0.00 | 0.00 | 0.00 | 93 | 1017.1 |
| 20260831053216 | 77 | 141 | 0.0 | 0.0 | 0.00 | 0.00 | 0.00 | 93 | 1017.1 |
| 20260831052720 | 78 | 141 | 0.0 | 0.0 | 0.00 | 0.00 | 0.00 | 93 | 1017.2 |
| 20260831052225 | 78 | 141 | 0.0 | 0.0 | 0.00 | 0.00 | 0.00 | 93 | 1017.2 |
| 20260831051730 | 78 | 141 | 0.0 | 1.0 | 0.00 | 0.00 | 0.00 | 93 | 1017.1 |
| 20260831051219 | 79 | 136 | 0.0 | 3.0 | 0.00 | 0.00 | 0.00 | 93 | 1017.1 |
| 20260831050744 | 79 | 136 | 0.0 | 3.0 | 0.00 | 0.00 | 0.00 | 93 | 1017.2 |
| 20260831050228 | 79 | 104 | 1.0 | 3.0 | 0.00 | 0.00 | 0.00 | 93 | 1017.2 |
| 20260831045733 | 79 | 74 | 2.0 | 3.0 | 0.00 | 0.00 | 0.00 | 93 | 1017.2 |
| 20260831045217 | 79 | 68 | 2.0 | 4.0 | 0.00 | 0.00 | 0.00 | 93 | 1017.2 |
| 20260831044723 | 79 | 50 | 3.0 | 4.0 | 0.00 | 0.00 | 0.00 | 93 | 1017.2 |
| 20260831044228 | 79 | 44 | 3.0 | 4.0 | 0.00 | 0.00 | 0.00 | 93 | 1017.1 |
| 20260831043733 | 79 | 39 | 3.0 | 4.0 | 0.00 | 0.00 | 0.00 | 93 | 1017.1 |
| 20260831043217 | 79 | 37 | 2.0 | 5.0 | 0.00 | 0.00 | 0.00 | 93 | 1017.1 |
| 20260831042742 | 79 | 43 | 3.0 | 5.0 | 0.00 | 0.00 | 0.00 | 92 | 1017.1 |
| 20260831042228 | 80 | 40 | 2.0 | 3.0 | 0.00 | 0.00 | 0.00 | 93 | 1017.1 |
| 20260831041714 | 80 | 54 | 2.0 | 3.0 | 0.00 | 0.00 | 0.00 | 93 | 1017.2 |
| 20260831041241 | 80 | 51 | 2.0 | 3.0 | 0.00 | 0.00 | 0.00 | 93 | 1017.2 |
| 20260831040716 | 80 | 49 | 1.0 | 2.0 | 0.00 | 0.00 | 0.00 | 93 | 1017.1 |
| 20260831040237 | 80 | 66 | 1.0 | 3.0 | 0.00 | 0.00 | 0.00 | 93 | 1017.1 |
| 20260831035719 | 79 | 53 | 1.0 | 3.0 | 0.00 | 0.00 | 0.00 | 92 | 1017.1 |
| 20260831035244 | 79 | 55 | 2.0 | 4.0 | 0.00 | 0.00 | 0.00 | 92 | 1017.1 |
| 20260831034727 | 79 | 58 | 3.0 | 4.0 | 0.00 | 0.00 | 0.00 | 92 | 1017.2 |
| 20260831034213 | 79 | 67 | 3.0 | 5.0 | 0.00 | 0.00 | 0.00 | 92 | 1017.3 |
| 20260831033737 | 79 | 52 | 3.0 | 6.0 | 0.00 | 0.00 | 0.00 | 92 | 1017.2 |
| 20260831033241 | 79 | 44 | 5.0 | 6.0 | 0.00 | 0.00 | 0.00 | 92 | 1017.2 |
| 20260831032725 | 80 | 41 | 5.0 | 6.0 | 0.00 | 0.00 | 0.00 | 92 | 1017.2 |
| 20260831032214 | 80 | 44 | 5.0 | 6.0 | 0.00 | 0.00 | 0.00 | 92 | 1017.2 |
| 20260831031718 | 80 | 47 | 4.0 | 5.0 | 0.00 | 0.00 | 0.00 | 91 | 1017.3 |
| 20260831031223 | 80 | 47 | 4.0 | 6.0 | 0.00 | 0.00 | 0.00 | 91 | 1017.3 |
| 20260831030728 | 81 | 49 | 4.0 | 5.0 | 0.00 | 0.00 | 0.00 | 91 | 1017.4 |
| 20260831030212 | 81 | 46 | 4.0 | 6.0 | 0.00 | 0.00 | 0.00 | 91 | 1017.4 |
| 20260831025717 | 81 | 59 | 4.0 | 6.0 | 0.00 | 0.00 | 0.00 | 91 | 1017.4 |
| 20260831025221 | 81 | 61 | 4.0 | 5.0 | 0.00 | 0.00 | 0.00 | 91 | 1017.4 |
| 20260831024726 | 81 | 51 | 4.0 | 5.0 | 0.00 | 0.00 | 0.00 | 90 | 1017.4 |
| 20260831024211 | 81 | 62 | 4.0 | 5.0 | 0.00 | 0.00 | 0.00 | 90 | 1017.4 |
| 20260831023716 | 81 | 54 | 4.0 | 5.0 | 0.00 | 0.00 | 0.00 | 90 | 1017.5 |
| 20260831023221 | 81 | 75 | 4.0 | 5.0 | 0.00 | 0.00 | 0.00 | 89 | 1017.5 |
| 20260831022729 | 81 | 53 | 4.0 | 5.0 | 0.00 | 0.00 | 0.00 | 90 | 1017.5 |
| 20260831022213 | 81 | 34 | 4.0 | 5.0 | 0.00 | 0.00 | 0.00 | 89 | 1017.5 |
| 20260831021718 | 81 | 35 | 4.0 | 5.0 | 0.00 | 0.00 | 0.00 | 89 | 1017.5 |
| 20260831021222 | 81 | 49 | 3.0 | 4.0 | 0.00 | 0.00 | 0.00 | 89 | 1017.6 |
| 20260831020739 | 81 | 37 | 4.0 | 5.0 | 0.00 | 0.00 | 0.00 | 88 | 1017.5 |
| 20260831020223 | 81 | 30 | 4.0 | 5.0 | 0.00 | 0.00 | 0.00 | 88 | 1017.7 |
| 20260831015728 | 81 | 32 | 4.0 | 5.0 | 0.00 | 0.00 | 0.00 | 88 | 1017.7 |
| 20260831015232 | 81 | 37 | 4.0 | 5.0 | 0.00 | 0.00 | 0.00 | 88 | 1017.7 |
| 20260831014717 | 82 | 27 | 3.0 | 4.0 | 0.00 | 0.00 | 0.00 | 88 | 1017.8 |
| 20260831014221 | 82 | 49 | 3.0 | 4.0 | 0.00 | 0.00 | 0.00 | 87 | 1017.9 |
| 20260831013726 | 82 | 74 | 2.0 | 3.0 | 0.00 | 0.00 | 0.00 | 87 | 1017.9 |
| 20260831013230 | 82 | 71 | 1.0 | 3.0 | 0.00 | 0.00 | 0.00 | 88 | 1017.8 |
| 20260831012719 | 82 | 61 | 3.0 | 5.0 | 0.00 | 0.00 | 0.00 | 87 | 1017.7 |
| 20260831012224 | 82 | 61 | 3.0 | 5.0 | 0.00 | 0.00 | 0.00 | 87 | 1017.7 |
| 20260831011729 | 82 | 59 | 3.0 | 5.0 | 0.00 | 0.00 | 0.00 | 88 | 1017.6 |
| 20260831011213 | 82 | 58 | 3.0 | 5.0 | 0.00 | 0.00 | 0.00 | 86 | 1017.6 |
| 20260831010718 | 82 | 55 | 3.0 | 5.0 | 0.00 | 0.00 | 0.00 | 87 | 1017.6 |
| 20260831010223 | 82 | 57 | 3.0 | 4.0 | 0.00 | 0.00 | 0.00 | 87 | 1017.6 |
| 20260831005728 | 82 | 61 | 3.0 | 3.0 | 0.00 | 0.00 | 0.00 | 87 | 1017.7 |
| 20260831005213 | 82 | 66 | 2.0 | 4.0 | 0.00 | 0.00 | 0.00 | 87 | 1017.7 |
| 20260831004718 | 82 | 56 | 2.0 | 5.0 | 0.00 | 0.00 | 0.00 | 87 | 1017.6 |
| 20260831004223 | 82 | 53 | 3.0 | 5.0 | 0.00 | 0.00 | 0.00 | 87 | 1017.6 |
| 20260831003739 | 82 | 62 | 4.0 | 6.0 | 0.00 | 0.00 | 0.00 | 87 | 1017.5 |
| 20260831003223 | 82 | 50 | 5.0 | 7.0 | 0.00 | 0.00 | 0.00 | 87 | 1017.4 |
| 20260831002712 | 82 | 44 | 5.0 | 7.0 | 0.00 | 0.00 | 0.00 | 87 | 1017.3 |
| 20260831002217 | 82 | 52 | 5.0 | 7.0 | 0.00 | 0.00 | 0.00 | 87 | 1017.1 |
| 20260831001722 | 82 | 54 | 5.0 | 8.0 | 0.00 | 0.00 | 0.00 | 87 | 1017.0 |
| 20260831001226 | 82 | 53 | 6.0 | 7.0 | 0.00 | 0.00 | 0.00 | 86 | 1017.1 |
| 20260831000723 | 83 | 56 | 6.0 | 7.0 | 0.00 | 0.00 | 0.00 | 86 | 1017.0 |
| 20260831000228 | 83 | 51 | 5.0 | 7.0 | 0.00 | 0.00 | 0.00 | 86 | 1017.0 |
| 20260830235732 | 83 | 51 | 6.0 | 7.0 | 0.00 | 0.00 | 0.00 | 86 | 1017.0 |
| 20260830235216 | 83 | 53 | 5.0 | 7.0 | 0.00 | 0.00 | 0.00 | 86 | 1017.1 |
| 20260830234721 | 83 | 49 | 5.0 | 8.0 | 0.00 | 0.00 | 0.00 | 86 | 1017.0 |
| 20260830234226 | 83 | 47 | 6.0 | 8.0 | 0.00 | 0.00 | 0.00 | 85 | 1017.0 |
| 20260830233711 | 83 | 71 | 5.0 | 8.0 | 0.00 | 0.00 | 0.00 | 86 | 1017.0 |
| 20260830233220 | 83 | 72 | 6.0 | 9.0 | 0.00 | 0.00 | 0.00 | 86 | 1017.0 |
| 20260830232724 | 83 | 72 | 7.0 | 10.0 | 0.00 | 0.00 | 0.00 | 86 | 1016.9 |
| 20260830232229 | 83 | 59 | 8.0 | 11.0 | 0.00 | 0.00 | 0.00 | 85 | 1016.9 |
| 20260830231712 | 83 | 60 | 8.0 | 11.0 | 0.00 | 0.00 | 0.00 | 85 | 1016.8 |
| 20260830231217 | 83 | 51 | 8.0 | 11.0 | 0.00 | 0.00 | 0.00 | 85 | 1016.8 |
| 20260830230722 | 84 | 72 | 9.0 | 12.0 | 0.00 | 0.00 | 0.00 | 84 | 1016.8 |
| 20260830230227 | 84 | 57 | 9.0 | 12.0 | 0.00 | 0.00 | 0.00 | 84 | 1016.8 |
| 20260830225751 | 84 | 60 | 7.0 | 10.0 | 0.00 | 0.00 | 0.00 | 83 | 1016.9 |
| 20260830225235 | 84 | 62 | 6.0 | 9.0 | 0.00 | 0.00 | 0.00 | 84 | 1016.9 |
| 20260830224719 | 84 | 44 | 6.0 | 12.0 | 0.00 | 0.00 | 0.00 | 82 | 1016.8 |
| 20260830224224 | 84 | 48 | 9.0 | 12.0 | 0.00 | 0.00 | 0.00 | 81 | 1016.8 |
| 20260830223729 | 85 | 54 | 8.0 | 13.0 | 0.00 | 0.00 | 0.00 | 82 | 1016.7 |
| 20260830223218 | 85 | 59 | 8.0 | 13.0 | 0.00 | 0.00 | 0.00 | 80 | 1016.6 |
| 20260830222723 | 85 | 60 | 10.0 | 13.0 | 0.00 | 0.00 | 0.00 | 80 | 1016.5 |
| 20260830222228 | 85 | 61 | 11.0 | 13.0 | 0.00 | 0.00 | 0.00 | 79 | 1016.6 |
| 20260830221712 | 85 | 69 | 11.0 | 15.0 | 0.00 | 0.00 | 0.00 | 79 | 1016.5 |
| 20260830221216 | 85 | 74 | 12.0 | 16.0 | 0.00 | 0.00 | 0.00 | 79 | 1016.5 |
| 20260830220712 | 85 | 74 | 13.0 | 15.0 | 0.00 | 0.00 | 0.00 | 79 | 1016.4 |
| 20260830220217 | 86 | 63 | 11.0 | 15.0 | 0.00 | 0.00 | 0.00 | 79 | 1016.4 |
| 20260830215720 | 86 | 71 | 11.0 | 15.0 | 0.00 | 0.00 | 0.00 | 79 | 1016.3 |
| 20260830215245 | 86 | 80 | 11.0 | 15.0 | 0.00 | 0.00 | 0.00 | 78 | 1016.3 |
| 20260830214727 | 86 | 68 | 10.0 | 14.0 | 0.00 | 0.00 | 0.00 | 76 | 1016.2 |
| 20260830214212 | 86 | 68 | 10.0 | 12.0 | 0.00 | 0.00 | 0.00 | 76 | 1016.1 |
| 20260830213717 | 86 | 68 | 8.0 | 9.0 | 0.00 | 0.00 | 0.00 | 74 | 1016.1 |
| 20260830213226 | 87 | 77 | 7.0 | 10.0 | 0.00 | 0.00 | 0.00 | 74 | 1016.2 |
| 20260830212751 | 87 | 77 | 8.0 | 11.0 | 0.00 | 0.00 | 0.00 | 74 | 1016.2 |
| 20260830212215 | 87 | 80 | 8.0 | 12.0 | 0.00 | 0.00 | 0.00 | 73 | 1016.2 |
| 20260830211740 | 87 | 85 | 10.0 | 12.0 | 0.00 | 0.00 | 0.00 | 71 | 1016.2 |
| 20260830211224 | 87 | 75 | 9.0 | 13.0 | 0.00 | 0.00 | 0.00 | 71 | 1016.2 |
| 20260830210729 | 87 | 84 | 10.0 | 13.0 | 0.00 | 0.00 | 0.00 | 71 | 1016.2 |
| 20260830210213 | 87 | 71 | 9.0 | 12.0 | 0.00 | 0.00 | 0.00 | 73 | 1016.2 |
| 20260830205738 | 87 | 77 | 9.0 | 13.0 | 0.00 | 0.00 | 0.00 | 73 | 1016.2 |
| 20260830205222 | 87 | 82 | 11.0 | 13.0 | 0.00 | 0.00 | 0.00 | 72 | 1016.3 |
| 20260830204726 | 88 | 75 | 10.0 | 13.0 | 0.00 | 0.00 | 0.00 | 70 | 1016.3 |
| 20260830204211 | 88 | 64 | 10.0 | 14.0 | 0.00 | 0.00 | 0.00 | 68 | 1016.3 |
| 20260830203717 | 88 | 73 | 11.0 | 14.0 | 0.00 | 0.00 | 0.00 | 68 | 1016.2 |
| 20260830203222 | 88 | 76 | 11.0 | 15.0 | 0.00 | 0.00 | 0.00 | 69 | 1016.2 |
| 20260830202730 | 88 | 69 | 12.0 | 15.0 | 0.00 | 0.00 | 0.00 | 70 | 1016.2 |
| 20260830202215 | 88 | 89 | 10.0 | 15.0 | 0.00 | 0.00 | 0.00 | 70 | 1016.3 |
| 20260830201719 | 88 | 75 | 8.0 | 13.0 | 0.00 | 0.00 | 0.00 | 68 | 1016.4 |
| 20260830201224 | 88 | 63 | 10.0 | 14.0 | 0.00 | 0.00 | 0.00 | 68 | 1016.6 |
| 20260830200720 | 88 | 75 | 10.0 | 14.0 | 0.00 | 0.00 | 0.00 | 70 | 1016.6 |
| 20260830200226 | 88 | 68 | 10.0 | 15.0 | 0.00 | 0.00 | 0.00 | 71 | 1016.6 |
| 20260830195729 | 88 | 76 | 12.0 | 15.0 | 0.00 | 0.00 | 0.00 | 69 | 1016.7 |
| 20260830195215 | 88 | 83 | 11.0 | 13.0 | 0.00 | 0.00 | 0.00 | 71 | 1016.7 |
| 20260830194739 | 87 | 51 | 8.0 | 10.0 | 0.00 | 0.00 | 0.00 | 72 | 1016.8 |
| 20260830194223 | 87 | 26 | 5.0 | 7.0 | 0.00 | 0.00 | 0.00 | 76 | 1016.8 |
| 20260830193728 | 87 | 345 | 4.0 | 6.0 | 0.00 | 0.00 | 0.00 | 77 | 1016.9 |
| 20260830193217 | 86 | 350 | 3.0 | 8.0 | 0.00 | 0.00 | 0.00 | 78 | 1016.9 |
| 20260830192741 | 86 | 357 | 4.0 | 8.0 | 0.00 | 0.00 | 0.00 | 77 | 1017.1 |
| 20260830192245 | 86 | 8 | 5.0 | 8.0 | 0.00 | 0.00 | 0.00 | 77 | 1017.1 |
| 20260830191728 | 86 | 57 | 6.0 | 12.0 | 0.00 | 0.00 | 0.00 | 77 | 1017.1 |
| 20260830191213 | 86 | 359 | 7.0 | 13.0 | 0.00 | 0.00 | 0.00 | 78 | 1017.1 |
| 20260830190718 | 86 | 56 | 9.0 | 15.0 | 0.00 | 0.00 | 0.00 | 75 | 1017.2 |
| 20260830190224 | 86 | 70 | 12.0 | 14.0 | 0.00 | 0.00 | 0.00 | 76 | 1017.1 |
| 20260830185728 | 86 | 57 | 6.0 | 9.0 | 0.00 | 0.00 | 0.00 | 76 | 1017.2 |
| 20260830185213 | 86 | 29 | 3.0 | 12.0 | 0.00 | 0.00 | 0.00 | 76 | 1017.3 |
| 20260830184738 | 86 | 333 | 8.0 | 12.0 | 0.00 | 0.00 | 0.00 | 77 | 1017.2 |
| 20260830184241 | 86 | 10 | 6.0 | 9.0 | 0.00 | 0.00 | 0.00 | 78 | 1017.2 |
| 20260830183745 | 86 | 338 | 6.0 | 9.0 | 0.00 | 0.00 | 0.00 | 78 | 1017.2 |
| 20260830183249 | 86 | 344 | 5.0 | 11.0 | 0.00 | 0.00 | 0.00 | 78 | 1017.3 |
| 20260830182713 | 86 | 4 | 9.0 | 11.0 | 0.00 | 0.00 | 0.00 | 79 | 1017.2 |
| 20260830182238 | 86 | 332 | 5.0 | 9.0 | 0.00 | 0.00 | 0.00 | 76 | 1017.2 |
| 20260830181722 | 86 | 345 | 6.0 | 8.0 | 0.00 | 0.00 | 0.00 | 79 | 1017.2 |
| 20260830181211 | 86 | 324 | 6.0 | 10.0 | 0.00 | 0.00 | 0.00 | 77 | 1017.4 |
| 20260830180727 | 86 | 341 | 6.0 | 12.0 | 0.00 | 0.00 | 0.00 | 77 | 1017.4 |
| 20260830180211 | 85 | 334 | 7.0 | 12.0 | 0.00 | 0.00 | 0.00 | 78 | 1017.6 |
| 20260830175717 | 86 | 7 | 9.0 | 13.0 | 0.00 | 0.00 | 0.00 | 77 | 1017.6 |